Location: Ajisawe
(8.4333°N, 4.3833°E)
Time: 00:50:17
(UTC+00:00)

Courier 1B Rocket - Pass Details

Date: 01 May 2021
Orbit: 920 x 1202 km, 28.3° (Epoch: 13 May)

Event Time Altitude Azimuth Distance (km) Brightness Sun altitude
Rises 13:17:46 0° 265° (W) 3,707 8.4 65.0°
Reaches altitude 10° 13:20:49 10° 275° (W) 2,715 7.9 64.3°
Maximum altitude 13:26:31 32° 337° (NNW) 1,566 6.9 63.0°
Drops below altitude 10° 13:32:01 10° 38° (NE) 2,610 7.3 61.7°
Sets 13:34:53 0° 49° (NE) 3,543 7.8 61.0°
